Regional Weather Roundup
Issued by NWS

Home | Current Version | Previous Version | Text Only | Print | Product List | Glossary On
Versions: 1 2 3 4 5 6 7 8 9 10 11 12 13 14 15 16 17 18 19 20 21 22 23 24 25 26 27 28 29 30 31 32 33 34 35 36 37 38 39 40 41 42 43 44 45 46 47 48 49 50
000
ASUS43 KMKX 040800
RWRWI

WISCONSIN REGIONAL WEATHER ROUNDUP
NATIONAL WEATHER SERVICE MILWAUKEE/SULLIVAN WI
300 AM CDT FRI SEP 04 2015

NOTE: "FAIR" INDICATES FEW OR NO CLOUDS BELOW 12,000 FEET WITH NO
SIGNIFICANT WEATHER AND/OR OBSTRUCTIONS TO VISIBILITY.

WIZ001-002-006>008-014>016-023>028-040900-
NORTHWEST WISCONSIN

CITY           SKY/WX    TMP DP  RH WIND       PRES   REMARKS
SUPERIOR ARPT  CLEAR     57  56  98 NE6       30.00R
ASHLAND        FOG       51  51 100 CALM      30.01S VSB 3/4
HAYWARD        CLEAR     66  63  90 SE3       30.00S
SIREN          PTCLDY    69  64  83 SE7       29.96S
CUMBERLAND     CLOUDY    64  63  94 SE8       29.99R
RICE LAKE      CLOUDY    67  64  88 E5        30.00S
CHETEK         CLOUDY    67  65  94 MISG      29.99S
LADYSMITH      CLEAR     64  63  95 E5        30.03S
EAU CLAIRE     NOT AVBL
MENOMONIE      PTCLDY    68  66  91 E5        29.97S
NEW RICHMOND   CLEAR     69  64  82 E9        29.95S
OSCEOLA        CLEAR     70  65  84 SE7       29.96S
$$

WIZ003>005-009-010-017-018-040900-
NORTH CENTRAL WISCONSIN

CITY           SKY/WX    TMP DP  RH WIND       PRES   REMARKS
MANITOWISH WTR PTCLDY    60  60 100 CALM      30.05S FOG
ARBOR VITAE    FOG       60  59  97 CALM      30.05S VSB 1/4
WOODRUFF       FOG       60  59  97 CALM      30.05S VSB 1/4
RHINELANDER    FOG       60  59  96 CALM      30.05S VSB 1/4
EAGLE RIVER    FOG       58  58 100 CALM      30.05F VSB 1/2
LAND O LAKES   FOG       56  56 100 CALM      30.08R VSB 3/4
PHILLIPS       CLEAR     62  61  97 CALM      30.03S
TOMAHAWK       FOG       53  52  97 CALM      30.05S VSB 1/4
MEDFORD        CLEAR     60  60 100 E6        30.03S FOG
MERRILL        FOG       57  57 100 CALM      30.04S VSB 1/2
$$

WIZ029-030-035-036-043>047-040900-
CENTRAL WISCONSIN

CITY           SKY/WX    TMP DP  RH WIND       PRES   REMARKS
WAUSAU         CLEAR     63  62  97 CALM      30.02R FOG
MOSINEE        CLEAR     59  59 100 NE6       30.03S
MARSHFIELD     MOCLDY    65  61  87 E5        30.02R
STEVENS POINT  CLEAR     60  60  99 CALM      30.02S FOG
WAUPACA        CLEAR     63  62  97 CALM      30.01S FOG
WAUTOMA        NOT AVBL
WISC RAPIDS    MOCLDY    65  62  90 CALM      30.02R
CAMP DOUGLAS   NOT AVBL
$$

WIZ011>013-019>022-031-037>040-048>050-040900-
NORTHEAST WISCONSIN

CITY           SKY/WX    TMP DP  RH WIND       PRES   REMARKS
ANTIGO         CLEAR     60  60 100 CALM      30.05S
SHAWANO        NOT AVBL
OCONTO         PTCLDY    63  63 100 CALM      30.00F
STURGEON BAY   CLOUDY    66  63  88 N6        30.02S
GREEN BAY      CLOUDY    67  64  90 N6        29.99F
MANITOWOC      NOT AVBL
APPLETON       PTCLDY    61  61 100 N5        29.99S
CLINTONVILLE   CLEAR     63  63 100 CALM      30.01S
OSHKOSH        MOCLDY    64  62  93 N5        29.99S
$$

WIZ032>034-041-042-053>061-040900-
SOUTHWEST WISCONSIN

CITY           SKY/WX    TMP DP  RH WIND       PRES   REMARKS
LA CROSSE      MOCLDY    71  66  84 SE6       29.97R
SPARTA         CLOUDY    69  64  83 CALM      29.99S
VIROQUA          N/A     67  67 100 E8        30.00R
BOSCOBEL       PTCLDY    70  67  90 CALM      29.97R
PRAIRIE DU CHI MOCLDY    73  68  86 E3        29.95R
PLATTEVILLE    PTCLDY    70  68  95 E9        29.97S
$$

WIZ056-057-062-063-064-067-068-040900-
SOUTH CENTRAL WISCONSIN

CITY           SKY/WX    TMP DP  RH WIND       PRES   REMARKS
REEDSBURG      CLOUDY    70  67  90 E3        29.99R
BARABOO/DELLS  CLOUDY    69  65  86 CALM      30.00R
LONE ROCK      NOT AVBL
MINERAL POINT  CLEAR     70  66  88 E7        29.99R
MADISON        CLOUDY    71  65  81 E3        29.99R
MIDDLETON      CLOUDY    71  68  90 CALM      30.00R
WATERTOWN      CLOUDY    69  69 100 N3        29.98S
MONROE         CLEAR     68  66  94 E3        29.98S
JANESVILLE     CLEAR     68  66  94 CALM      29.97S FOG
$$

WIZ051-052-058>065-066-070>072-040900-
SOUTHEAST WISCONSIN

CITY           SKY/WX    TMP DP  RH WIND       PRES   REMARKS
MILWAUKEE      PTCLDY    68  64  87 NW3       29.97S
WAUKESHA       MOCLDY    63  63 100 CALM      29.99S
MILWAUKEE/TIMM PTCLDY    64  61  88 CALM      29.98S
RACINE         MOCLDY    67  63  87 CALM      29.99S
BURLINGTON     MOCLDY    65  64  96 CALM      29.98S
KENOSHA        CLOUDY    66  64  93 W3        29.98R
FOND DU LAC    CLOUDY    63  62  97 NE7       29.99S
SHEBOYGAN      FOG       65  65 100 N3        29.98S VSB 3/4
WEST BEND      FOG       61  59  94 CALM      29.99R VSB 3/4
JUNEAU         CLOUDY    66  65  97 CALM      30.00S FOG
$$

LSZ147-162-040900-
LAKE SUPERIOR

STATION/POSITION TIME  TEMP    WIND        PRES    WAVE
                       AIR SEA DIR/SP/G            HT/PER
                 (UTC) (F)     (DEG/KT/KT) (MB)    (FT/S)
W MID LAKE BUOY  0650   60 56   90/  6/  8 1016.5R   1
DEVILS ISLAND    0700   59      80/  6/  6 1016.3R
PORT WING        0700   56      CALM  /  2 1015.6F
SAXON HARBOR     0700   56        CALM     1015.6S
$$

LMZ867-665-643>646-040900-
LAKE MICHIGAN

STATION/POSITION TIME  TEMP    WIND        PRES    WAVE
                       AIR SEA DIR/SP/G            HT/PER
                 (UTC) (F)     (DEG/KT/KT) (MB)    (FT/S)
CHAMBERS ISLAND  0700   65      10/  7/  9 1016.3R
S GREEN BAY BUOY 0700   67 66   10/ 12/ 14 1017.0
N MID LAKE BUOY  0650   68 66   40/  8/ 10 1015.5R   1/ 3
NORTHPORT PIER   0700   67      10/  4/  5 1015.9R
SISTER BAY       0711   66        CALM       N/A
ALGOMA LAKESHORE 0714          340/  5/  7   N/A
KEWAUNEE LAKESHO 0700   67      10/  5/ 10 1014.5R
SHEBOYGAN LAKESH 0700   65     330/  8/ 10 1015.2R
PORT WASHINGTON  0740   64     320/  2/  3 1015.6S
ATWATER BUOY     0700   61     330/  2/  4 1016.2S
MILWAUKEE LAKESH 0710   67     300/  1/  2   N/A
S MID LAKE BUOY  0650   69 71  300/ 10/ 12 1013.5F   1/ 4
KENOSHA   LAKESH 0700   67     360/  2/  3 1014.6S
$$

TC  - TEMPERATURE IN CELSIUS
VSB - VISIBILITY IN STATUTE MILES
WCI - WIND CHILL INDEX
HX  - HEAT INDEX



USA.gov is the U.S. government's official web portal to all federal, state and local government web resources and services.